STARLINK-32224

Last updated on Tue Oct 01 2024 00:02:04 GMT+0000 (Coordinated Universal Time)

1 60941U 24155T 24274.40667896 .00000897 00000+0 24185-4 0 9999 2 60941 53.1618 52.6875 0001126 84.7646 275.3492 15.49314660 5886
UTC large
Height (km)
Speed (km/s)
/
Latitude / Longitude
Inclination (degrees)
Orbital Period (minutes)
Azimuth
Elevation
Range (km)
Doppler Factor

Next 0 passes for location: London (51.5072 / 0.1276)

Sorry there are no passes over London.